Campo, CA

5:22 PM PDT on September 20, 2019 (GMT -0700)
Campo

Weather History for KCZZ - May, 2019

Change the Weather History Date:

Wednesday, May 15, 2019

  Actual Average Record
Temperature  
Mean Temperature 60 °F 61 °F  
Max Temperature 75 °F 80 °F 95 °F (1997)
Min Temperature 45 °F 42 °F 28 °F (1955)
Degree Days  
Heating Degree Days 5 5  
Month to date heating degree days 116 90  
Since 1 July heating degree days 2834 2858  
Cooling Degree Days 0 1  
Month to date cooling degree days 0 10  
Year to date cooling degree days 2 13  
Growing Degree Days 10 (Base 50)    
Moisture  
Dew Point 48 °F    
Average Humidity 61    
Maximum Humidity 93    
Minimum Humidity 29    
Precipitation  
Precipitation 0.00 in 0.00 in 1.47 in (2015)
Month to date precipitation 0.52 0.13  
Year to date precipitation 11.71 9.99  
Sea Level Pressure  
Sea Level Pressure 29.85 in    
Wind  
Wind Speed 10 mph (SW)    
Max Wind Speed 21 mph    
Max Gust Speed 24 mph    
T = Trace of Precipitation, MM = Missing Value Source: NWS Daily Summary

Daily Weather History Graph

Daily Weather History Graph

Search for Another Location

Airport or City:

Astronomy

May. 15, 2019 Rise Set
Actual Time 5:47 AM PDT 7:37 PM PDT
Civil Twilight 5:20 AM PDT 8:04 PM PDT
Nautical Twilight 4:47 AM PDT 8:37 PM PDT
Astronomical Twilight 4:12 AM PDT 9:12 PM PDT
Moon 4:28 PM PDT (5/15) 3:58 AM PDT (5/15)
Length of Visible Light 14h 44m
Length of Day
13h 50m
Waxing Gibbous, 88% of the Moon is Illuminated
May 15
Waxing Gibbous
May 18
Full
May 26
Last Quarter
Jun 3
New
Jun 9
First Quarter

Hourly Weather History & Observations

Time (PDT) Temp. Dew Point Humidity Pressure Visibility Wind Dir Wind Speed Gust Speed Precip Events Conditions
12:52 AM 51.1 °F 48.0 °F 89% 29.88 in - NE 5.8 mph - N/A   Unknown
1:52 AM 50.0 °F 46.9 °F 89% 29.86 in - NE 6.9 mph - N/A   Unknown
2:52 AM 48.9 °F 46.0 °F 90% 29.86 in - Variable 3.5 mph - N/A   Unknown
3:52 AM 48.0 °F 44.1 °F 86% 29.86 in - ENE 8.1 mph - N/A   Unknown
4:52 AM 48.0 °F 44.1 °F 86% 29.86 in - NE 5.8 mph - N/A   Unknown
5:52 AM 46.9 °F 43.0 °F 86% 29.86 in - NE 5.8 mph - N/A   Unknown
6:52 AM 50.0 °F 45.0 °F 83% 29.87 in - NE 5.8 mph - N/A   Unknown
7:52 AM 57.9 °F 48.9 °F 72% 29.86 in - NE 3.5 mph - N/A   Unknown
9:52 AM 72.0 °F 37.9 °F 29% 29.84 in - SW 10.4 mph - N/A   Unknown
11:52 AM 73.9 °F 44.1 °F 34% 29.86 in - SW 17.3 mph - N/A   Unknown
12:52 PM 72.0 °F 50.0 °F 46% 29.87 in - SW 16.1 mph 23.0 mph N/A   Unknown
1:52 PM 71.1 °F 50.0 °F 47% 29.86 in - SW 17.3 mph 24.2 mph N/A   Unknown
2:52 PM 72.0 °F 48.0 °F 43% 29.85 in - SW 17.3 mph - N/A   Unknown
3:52 PM 70.0 °F 50.0 °F 49% 29.84 in - SW 16.1 mph - N/A   Unknown
4:52 PM 69.1 °F 51.1 °F 53% 29.84 in - SW 12.7 mph - N/A   Unknown
5:52 PM 66.0 °F 51.1 °F 59% 29.83 in - SW 11.5 mph - N/A   Unknown
6:52 PM 62.1 °F 51.1 °F 67% 29.83 in - SW 10.4 mph - N/A   Unknown
7:52 PM 57.0 °F 51.1 °F 81% 29.83 in - South 6.9 mph - N/A   Unknown
8:52 PM 55.0 °F 51.1 °F 86% 29.86 in - SW 9.2 mph - N/A   Unknown
9:52 PM 55.0 °F 51.1 °F 86% 29.87 in - SW 10.4 mph - N/A   Unknown
10:52 PM 54.0 °F 51.1 °F 90% 29.85 in - South 6.9 mph - N/A   Unknown
11:52 PM 54.0 °F 48.9 °F 83% 29.85 in - West 6.9 mph - N/A   Unknown